Time,TemperatureF,DewpointF,PressureIn,WindDirection,WindDirectionDegrees,WindSpeedMPH,WindSpeedGustMPH,Humidity,HourlyPrecipIn,Conditions,Clouds,dailyrainin,SoftwareType,DateUTC
2013-02-12 00:06:00,38.3,38.0,29.62,WSW,256,0.0,0.0,99,0.00,,,0.00,weatherlink.com 1.10,2013-02-12 05:06:00,
2013-02-12 00:20:00,38.8,39.0,29.61,WSW,250,0.0,0.0,99,0.00,,,0.00,weatherlink.com 1.10,2013-02-12 05:20:00,
2013-02-12 00:36:00,38.3,38.0,29.61,WSW,238,0.0,0.0,99,0.00,,,0.00,weatherlink.com 1.10,2013-02-12 05:36:00,
2013-02-12 00:50:00,37.2,37.0,29.61,West,266,0.0,0.0,99,0.00,,,0.00,weatherlink.com 1.10,2013-02-12 05:50:00,
2013-02-12 01:05:00,35.8,36.0,29.61,WSW,249,0.0,0.0,99,0.00,,,0.00,weatherlink.com 1.10,2013-02-12 06:05:00,
2013-02-12 01:21:00,39.6,39.0,29.61,West,278,0.0,0.0,99,0.00,,,0.00,weatherlink.com 1.10,2013-02-12 06:21:00,
2013-02-12 01:35:00,42.9,43.0,29.61,West,279,0.0,0.0,99,0.00,,,0.00,weatherlink.com 1.10,2013-02-12 06:35:00,
2013-02-12 01:50:00,42.5,42.0,29.62,WNW,293,0.0,0.0,99,0.00,,,0.00,weatherlink.com 1.10,2013-02-12 06:50:00,
2013-02-12 02:06:00,42.0,42.0,29.61,West,271,0.0,0.0,99,0.00,,,0.00,weatherlink.com 1.10,2013-02-12 07:06:00,
2013-02-12 02:20:00,41.6,41.0,29.61,NW,304,0.0,0.0,99,0.00,,,0.00,weatherlink.com 1.10,2013-02-12 07:20:00,
2013-02-12 02:35:00,41.2,41.0,29.61,WSW,239,0.0,0.0,99,0.00,,,0.00,weatherlink.com 1.10,2013-02-12 07:35:00,
2013-02-12 02:51:00,40.8,41.0,29.61,WNW,293,0.0,0.0,99,0.00,,,0.00,weatherlink.com 1.10,2013-02-12 07:51:00,
2013-02-12 03:06:00,40.4,40.0,29.61,West,278,0.0,0.0,99,0.00,,,0.00,weatherlink.com 1.10,2013-02-12 08:06:00,
2013-02-12 03:21:00,39.9,40.0,29.61,WNW,289,0.0,0.0,99,0.00,,,0.00,weatherlink.com 1.10,2013-02-12 08:21:00,
2013-02-12 03:36:00,39.4,39.0,29.62,WNW,285,0.0,6.0,98,0.00,,,0.00,weatherlink.com 1.10,2013-02-12 08:36:00,
2013-02-12 03:51:00,39.0,39.0,29.62,WNW,293,4.0,6.0,98,0.00,,,0.00,weatherlink.com 1.10,2013-02-12 08:51:00,
2013-02-12 04:06:00,38.6,38.0,29.63,WNW,300,13.0,17.0,97,0.00,,,0.00,weatherlink.com 1.10,2013-02-12 09:06:00,
2013-02-12 04:21:00,38.1,36.0,29.64,WSW,256,12.0,18.0,90,0.00,,,0.00,weatherlink.com 1.10,2013-02-12 09:21:00,
2013-02-12 04:36:00,37.6,35.0,29.65,NW,312,9.0,17.0,89,0.00,,,0.00,weatherlink.com 1.10,2013-02-12 09:36:00,
2013-02-12 04:51:00,37.3,34.0,29.65,WNW,301,11.0,17.0,88,0.00,,,0.00,weatherlink.com 1.10,2013-02-12 09:51:00,
2013-02-12 05:06:00,36.8,33.0,29.66,WNW,293,9.0,14.0,87,0.00,,,0.00,weatherlink.com 1.10,2013-02-12 10:06:00,
2013-02-12 05:21:00,36.3,33.0,29.66,WNW,287,5.0,13.0,88,0.00,,,0.00,weatherlink.com 1.10,2013-02-12 10:21:00,
2013-02-12 05:36:00,36.1,33.0,29.67,WNW,293,9.0,15.0,87,0.00,,,0.00,weatherlink.com 1.10,2013-02-12 10:36:00,
2013-02-12 05:51:00,35.8,32.0,29.67,West,259,8.0,19.0,86,0.00,,,0.00,weatherlink.com 1.10,2013-02-12 10:51:00,
2013-02-12 06:06:00,35.6,32.0,29.67,WNW,293,11.0,14.0,86,0.00,,,0.00,weatherlink.com 1.10,2013-02-12 11:06:00,
2013-02-12 06:21:00,35.6,32.0,29.67,WNW,282,11.0,19.0,85,0.00,,,0.00,weatherlink.com 1.10,2013-02-12 11:21:00,
2013-02-12 06:36:00,35.4,32.0,29.68,West,272,8.0,18.0,86,0.00,,,0.00,weatherlink.com 1.10,2013-02-12 11:36:00,
2013-02-12 06:51:00,35.0,31.0,29.69,WNW,283,9.0,15.0,86,0.00,,,0.00,weatherlink.com 1.10,2013-02-12 11:51:00,
2013-02-12 07:06:00,34.8,31.0,29.70,West,267,6.0,13.0,87,0.00,,,0.00,weatherlink.com 1.10,2013-02-12 12:06:00,
2013-02-12 07:21:00,35.2,31.0,29.70,West,267,4.0,17.0,86,0.00,,,0.00,weatherlink.com 1.10,2013-02-12 12:21:00,
2013-02-12 07:36:00,35.9,32.0,29.71,WNW,295,9.0,15.0,84,0.00,,,0.00,weatherlink.com 1.10,2013-02-12 12:36:00,
2013-02-12 07:51:00,36.5,32.0,29.71,West,281,10.0,17.0,82,0.00,,,0.00,weatherlink.com 1.10,2013-02-12 12:51:00,
2013-02-12 08:07:00,36.9,32.0,29.71,WNW,288,14.0,15.0,81,0.00,,,0.00,weatherlink.com 1.10,2013-02-12 13:07:00,
2013-02-12 08:21:00,37.3,32.0,29.71,West,271,13.0,16.0,81,0.00,,,0.00,weatherlink.com 1.10,2013-02-12 13:21:00,
2013-02-12 08:36:00,38.2,32.0,29.71,WNW,295,13.0,20.0,78,0.00,,,0.00,weatherlink.com 1.10,2013-02-12 13:36:00,
2013-02-12 08:51:00,39.1,31.0,29.72,West,269,14.0,24.0,74,0.00,,,0.00,weatherlink.com 1.10,2013-02-12 13:51:00,
2013-02-12 09:06:00,39.5,32.0,29.72,WSW,257,10.0,22.0,73,0.00,,,0.00,weatherlink.com 1.10,2013-02-12 14:06:00,
2013-02-12 09:21:00,39.9,32.0,29.73,West,271,12.0,25.0,73,0.00,,,0.00,weatherlink.com 1.10,2013-02-12 14:21:00,
2013-02-12 09:36:00,37.6,33.0,29.73,West,271,17.0,20.0,82,0.00,,,0.00,weatherlink.com 1.10,2013-02-12 14:36:00,
2013-02-12 09:51:00,39.7,32.0,29.73,West,269,13.0,23.0,75,0.00,,,0.00,weatherlink.com 1.10,2013-02-12 14:51:00,
2013-02-12 10:06:00,40.6,32.0,29.73,WNW,285,13.0,26.0,72,0.00,,,0.00,weatherlink.com 1.10,2013-02-12 15:06:00,
2013-02-12 10:21:00,41.0,32.0,29.73,WNW,283,18.0,29.0,70,0.00,,,0.00,weatherlink.com 1.10,2013-02-12 15:21:00,
2013-02-12 10:36:00,41.4,32.0,29.73,NW,307,18.0,27.0,68,0.00,,,0.00,weatherlink.com 1.10,2013-02-12 15:36:00,
2013-02-12 10:51:00,41.8,30.0,29.72,West,278,29.0,31.0,64,0.00,,,0.00,weatherlink.com 1.10,2013-02-12 15:51:00,
2013-02-12 11:06:00,42.4,30.0,29.73,WSW,256,17.0,32.0,63,0.00,,,0.00,weatherlink.com 1.10,2013-02-12 16:06:00,
2013-02-12 11:21:00,41.9,30.0,29.73,West,266,16.0,26.0,63,0.00,,,0.00,weatherlink.com 1.10,2013-02-12 16:21:00,
2013-02-12 11:36:00,37.9,32.0,29.73,West,262,17.0,23.0,80,0.00,,,0.00,weatherlink.com 1.10,2013-02-12 16:36:00,
2013-02-12 11:51:00,37.5,33.0,29.73,West,271,18.0,24.0,82,0.00,,,0.00,weatherlink.com 1.10,2013-02-12 16:51:00,
2013-02-12 12:07:00,37.2,33.0,29.73,West,269,15.0,21.0,85,0.00,,,0.00,weatherlink.com 1.10,2013-02-12 17:07:00,
2013-02-12 12:22:00,37.3,33.0,29.73,West,259,18.0,24.0,84,0.00,,,0.00,weatherlink.com 1.10,2013-02-12 17:22:00,
2013-02-12 12:37:00,37.8,33.0,29.73,West,269,16.0,21.0,82,0.00,,,0.00,weatherlink.com 1.10,2013-02-12 17:37:00,
2013-02-12 12:52:00,38.3,31.0,29.73,West,267,17.0,30.0,76,0.00,,,0.00,weatherlink.com 1.10,2013-02-12 17:52:00,
2013-02-12 13:07:00,42.8,29.0,29.73,WNW,293,20.0,26.0,58,0.00,,,0.00,weatherlink.com 1.10,2013-02-12 18:07:00,
2013-02-12 13:22:00,43.6,29.0,29.73,NW,304,16.0,25.0,56,0.00,,,0.00,weatherlink.com 1.10,2013-02-12 18:22:00,
2013-02-12 13:37:00,43.8,28.0,29.73,WNW,283,16.0,31.0,54,0.00,,,0.00,weatherlink.com 1.10,2013-02-12 18:37:00,
2013-02-12 13:52:00,44.1,28.0,29.73,West,272,11.0,32.0,53,0.00,,,0.00,weatherlink.com 1.10,2013-02-12 18:52:00,
2013-02-12 14:07:00,44.3,27.0,29.74,SW,218,12.0,30.0,51,0.00,,,0.00,weatherlink.com 1.10,2013-02-12 19:07:00,
2013-02-12 14:37:00,44.3,27.0,29.74,WNW,289,14.0,34.0,52,0.00,,,0.00,weatherlink.com 1.10,2013-02-12 19:37:00,
2013-02-12 14:52:00,44.5,27.0,29.74,WNW,297,15.0,26.0,51,0.00,,,0.00,weatherlink.com 1.10,2013-02-12 19:52:00,
2013-02-12 15:07:00,44.8,28.0,29.74,NW,305,14.0,26.0,52,0.00,,,0.00,weatherlink.com 1.10,2013-02-12 20:07:00,
2013-02-12 15:22:00,44.7,28.0,29.74,WNW,285,22.0,28.0,53,0.00,,,0.00,weatherlink.com 1.10,2013-02-12 20:22:00,
2013-02-12 15:37:00,44.5,28.0,29.75,West,269,12.0,27.0,53,0.00,,,0.00,weatherlink.com 1.10,2013-02-12 20:37:00,
2013-02-12 15:52:00,44.5,29.0,29.75,WNW,290,15.0,27.0,54,0.00,,,0.00,weatherlink.com 1.10,2013-02-12 20:52:00,
2013-02-12 16:07:00,44.1,28.0,29.75,NW,307,15.0,26.0,54,0.00,,,0.00,weatherlink.com 1.10,2013-02-12 21:07:00,
2013-02-12 16:22:00,43.7,28.0,29.75,NW,320,10.0,29.0,55,0.00,,,0.00,weatherlink.com 1.10,2013-02-12 21:22:00,
2013-02-12 16:37:00,43.0,29.0,29.74,NW,316,7.0,27.0,57,0.00,,,0.00,weatherlink.com 1.10,2013-02-12 21:37:00,
2013-02-12 16:52:00,42.3,28.0,29.74,NNW,335,22.0,28.0,58,0.00,,,0.00,weatherlink.com 1.10,2013-02-12 21:52:00,
2013-02-12 17:07:00,41.2,29.0,29.74,WNW,301,8.0,25.0,61,0.00,,,0.00,weatherlink.com 1.10,2013-02-12 22:07:00,
2013-02-12 17:22:00,40.8,28.0,29.75,NNW,337,5.0,18.0,61,0.00,,,0.00,weatherlink.com 1.10,2013-02-12 22:22:00,
2013-02-12 17:37:00,40.3,28.0,29.76,WNW,299,10.0,15.0,63,0.00,,,0.00,weatherlink.com 1.10,2013-02-12 22:37:00,
2013-02-12 17:52:00,39.8,28.0,29.75,NW,307,8.0,13.0,64,0.00,,,0.00,weatherlink.com 1.10,2013-02-12 22:52:00,
2013-02-12 18:07:00,39.3,29.0,29.76,West,278,3.0,14.0,66,0.00,,,0.00,weatherlink.com 1.10,2013-02-12 23:07:00,
2013-02-12 18:22:00,38.9,28.0,29.77,WNW,291,7.0,11.0,66,0.00,,,0.00,weatherlink.com 1.10,2013-02-12 23:22:00,
2013-02-12 18:37:00,39.2,28.0,29.77,West,277,20.0,20.0,65,0.00,,,0.00,weatherlink.com 1.10,2013-02-12 23:37:00,
2013-02-12 18:54:00,39.1,29.0,29.80,WNW,301,8.0,21.0,66,0.00,,,0.00,weatherlink.com 1.10,2013-02-12 23:54:00,
2013-02-12 19:08:00,38.6,28.0,29.80,West,276,14.0,17.0,67,0.00,,,0.00,weatherlink.com 1.10,2013-02-13 00:08:00,
2013-02-12 19:22:00,38.6,28.0,29.82,West,259,12.0,21.0,66,0.00,,,0.00,weatherlink.com 1.10,2013-02-13 00:22:00,
2013-02-12 19:37:00,38.5,28.0,29.83,WNW,283,15.0,23.0,66,0.00,,,0.00,weatherlink.com 1.10,2013-02-13 00:37:00,
2013-02-12 19:52:00,38.4,29.0,29.86,WNW,287,22.0,22.0,68,0.00,,,0.00,weatherlink.com 1.10,2013-02-13 00:52:00,
2013-02-12 20:08:00,38.5,29.0,29.88,NW,311,3.0,12.0,68,0.00,,,0.00,weatherlink.com 1.10,2013-02-13 01:08:00,
2013-02-12 20:23:00,38.4,29.0,29.89,NW,324,7.0,13.0,68,0.00,,,0.00,weatherlink.com 1.10,2013-02-13 01:23:00,
2013-02-12 20:38:00,38.3,29.0,29.88,WNW,291,6.0,9.0,68,0.00,,,0.00,weatherlink.com 1.10,2013-02-13 01:38:00,
2013-02-12 20:53:00,38.0,29.0,29.87,WNW,301,4.0,12.0,69,0.00,,,0.00,weatherlink.com 1.10,2013-02-13 01:53:00,
2013-02-12 21:08:00,37.9,29.0,29.89,NNW,333,4.0,13.0,69,0.00,,,0.00,weatherlink.com 1.10,2013-02-13 02:08:00,
2013-02-12 21:23:00,37.6,29.0,29.89,West,270,2.0,9.0,70,0.00,,,0.00,weatherlink.com 1.10,2013-02-13 02:23:00,
2013-02-12 21:38:00,37.1,28.0,29.87,WNW,283,4.0,11.0,71,0.00,,,0.00,weatherlink.com 1.10,2013-02-13 02:38:00,
2013-02-12 21:53:00,36.6,28.0,29.86,NW,309,3.0,8.0,72,0.00,,,0.00,weatherlink.com 1.10,2013-02-13 02:53:00,
2013-02-12 22:09:00,36.0,28.0,29.85,WNW,283,2.0,4.0,73,0.00,,,0.00,weatherlink.com 1.10,2013-02-13 03:09:00,
2013-02-12 22:23:00,35.7,28.0,29.85,WNW,298,2.0,6.0,73,0.00,,,0.00,weatherlink.com 1.10,2013-02-13 03:23:00,
2013-02-12 22:38:00,35.3,28.0,29.84,WNW,293,2.0,7.0,75,0.00,,,0.00,weatherlink.com 1.10,2013-02-13 03:38:00,
2013-02-12 23:08:00,35.4,28.0,29.84,WNW,300,2.0,11.0,73,0.00,,,0.00,weatherlink.com 1.10,2013-02-13 04:08:00,
2013-02-12 23:23:00,34.8,27.0,29.83,NNW,333,1.0,4.0,74,0.00,,,0.00,weatherlink.com 1.10,2013-02-13 04:23:00,
2013-02-12 23:38:00,34.1,27.0,29.84,WNW,293,1.0,3.0,76,0.00,,,0.00,weatherlink.com 1.10,2013-02-13 04:38:00,
2013-02-12 23:53:00,33.7,27.0,29.85,WNW,293,2.0,4.0,77,0.00,,,0.00,weatherlink.com 1.10,2013-02-13 04:53:00,